DW4338 Bergen NO current weather conditions

sailwx.info

Wind from 278 at 20 knots gusting 34

Air temperature 6.1° C
Dewpoint 5.4° C

Last reported at 2018-Apr-21 03:01 UTC.
Time now 2018-Apr-21 04:11 UTC

Location: N 60°31' E 004°54'.
View on Google Maps.

See reports from other nearby stations

  
Tides and Currents Weather Stations Pressure Air Temp Water Temp Dewpoint Dewpoint Depression Visibility Wind Speed Wind Dir Waves Ship Positions
date/time (UTC)wind fromknots sea level pressurealtimeterstation pressurevisibilityair tempwater tempwave heightnotes
2018-Apr-21 03:01 278 20 gusting 34 6.1
2018-Apr-21 02:46 284 18 gusting 30 6.1
2018-Apr-21 02:31 294 17 gusting 33 6.1
2018-Apr-21 02:16 291 18 gusting 25 6.1
2018-Apr-21 02:01 299 14 gusting 27 6.1
2018-Apr-21 01:45 284 19 gusting 34 6.1
2018-Apr-21 01:30 290 24 gusting 35 6.1
2018-Apr-21 01:15 284 24 gusting 36 6.1
2018-Apr-21 01:00 270 21 gusting 31 6.1
2018-Apr-21 00:45 285 19 gusting 30 6.1
2018-Apr-21 00:30 293 20 gusting 31 6.1
2018-Apr-21 00:15 289 19 gusting 31 6.1
2018-Apr-21 00:00 271 19 gusting 29 6.1
2018-Apr-20 23:45 292 17 gusting 33 6.1
2018-Apr-20 23:30 278 19 gusting 31 6.1
2018-Apr-20 23:15 267 24 gusting 38 6.1
2018-Apr-20 23:00 298 18 gusting 34 6.1
2018-Apr-20 22:45 292 27 gusting 42 6.1
2018-Apr-20 22:30 285 19 gusting 36 6.1
2018-Apr-20 22:15 279 19 gusting 33 6.1
2018-Apr-20 22:00 290 19 gusting 33 6.1
2018-Apr-20 21:45 292 16 gusting 28 6.1
2018-Apr-20 21:30 302 23 gusting 33 6.1
2018-Apr-20 21:15 301 19 gusting 35 6.1
2018-Apr-20 21:00 257 19 gusting 31 6.1
2018-Apr-20 20:45 288 10 gusting 27 6.1
2018-Apr-20 20:30 272 16 gusting 27 6.1
2018-Apr-20 20:15 269 13 gusting 27 6.1
2018-Apr-20 20:00 286 15 gusting 33 6.7
2018-Apr-20 19:45 245 16 gusting 31 6.7
2018-Apr-20 19:30 228 13 gusting 24 6.7
2018-Apr-20 19:15 270 14 gusting 29 6.7
2018-Apr-20 19:00 267 16 gusting 29 6.7
2018-Apr-20 18:45 257 15 gusting 38 6.7
2018-Apr-20 18:30 275 15 gusting 36 6.7
2018-Apr-20 18:15 259 17 gusting 32 6.7
2018-Apr-20 18:00 244 12 gusting 26 6.7
2018-Apr-20 17:45 260 13 gusting 28 6.7
2018-Apr-20 17:30 259 13 gusting 26 6.7
2018-Apr-20 17:15 267 9 gusting 21 6.7
2018-Apr-20 17:00 242 9 gusting 20 6.7
2018-Apr-20 16:45 238 9 gusting 21 7.2
2018-Apr-20 16:30 230 11 gusting 21 7.2
2018-Apr-20 16:15 229 4 gusting 16 7.2
2018-Apr-20 16:00 251 8 gusting 17 7.2
2018-Apr-20 15:45 225 6 gusting 13 7.2
2018-Apr-20 15:30 226 3 gusting 15 7.2
2018-Apr-20 15:15 250 8 gusting 18 7.2
2018-Apr-20 15:00 236 5 gusting 13 7.8
2018-Apr-20 14:45 236 6 gusting 16 7.2
2018-Apr-20 14:30 255 11 gusting 24 7.2
2018-Apr-20 14:15 239 12 gusting 21 7.2
2018-Apr-20 14:00 232 8 gusting 18 7.2
2018-Apr-20 13:45 212 7 gusting 18 7.2
2018-Apr-20 13:30 266 9 gusting 26 6.7
2018-Apr-20 13:15 249 11 gusting 23 6.7
2018-Apr-20 13:00 294 13 gusting 26 6.7
2018-Apr-20 12:45 238 13 gusting 31 6.7
2018-Apr-20 12:30 198 13 gusting 28 6.7
2018-Apr-20 12:14 207 13 gusting 27 6.7
2018-Apr-20 11:59 193 11 gusting 30 6.7
2018-Apr-20 11:44 240 14 gusting 27 6.7
2018-Apr-20 11:29 224 6 gusting 28 6.7
2018-Apr-20 11:14 209 7 gusting 25 6.7
2018-Apr-20 10:59 180 7 gusting 20 6.7
2018-Apr-20 10:44 229 13 gusting 27 6.7
2018-Apr-20 10:29 225 13 gusting 34 6.7
2018-Apr-20 10:14 192 14 gusting 30 6.7
2018-Apr-20 09:59 206 12 gusting 28 6.7
2018-Apr-20 09:44 212 11 gusting 30 6.7
2018-Apr-20 09:29 215 16 gusting 34 6.7
2018-Apr-20 09:14 270 14 gusting 39 7.2
2018-Apr-20 08:59 177 13 gusting 25 7.2
2018-Apr-20 08:44 246 12 gusting 26 7.2
2018-Apr-20 08:29 236 13 gusting 29 6.7
2018-Apr-20 08:14 270 13 gusting 28 6.7
2018-Apr-20 07:59 223 13 gusting 26 6.7
2018-Apr-20 07:44 229 10 gusting 26 6.7
2018-Apr-20 07:29 255 13 gusting 22 6.7
2018-Apr-20 07:14 191 11 gusting 30 6.7
2018-Apr-20 06:59 231 14 gusting 28 6.7
2018-Apr-20 06:44 224 6 gusting 18 6.7
2018-Apr-20 06:29 234 4 gusting 13 7.2
2018-Apr-20 06:14 196 0 gusting 13 6.7
2018-Apr-20 05:59 192 0 gusting 10 6.7
2018-Apr-20 05:44 213 2 gusting 18 6.7
2018-Apr-20 05:29 198 0 gusting 21 6.1
2018-Apr-20 05:14 212 2 gusting 17 6.1
2018-Apr-20 04:59 220 6 gusting 20 6.1
2018-Apr-20 04:44 167 8 gusting 20 6.1
2018-Apr-20 04:29 197 2 gusting 22 6.1
2018-Apr-20 04:14 205 7 gusting 22 6.1
2018-Apr-20 03:59 201 1 gusting 19 6.1
2018-Apr-20 03:44 219 4 gusting 20 6.1
2018-Apr-20 03:29 205 8 gusting 20 6.1
2018-Apr-20 03:14 188 2 gusting 11 6.7
2018-Apr-20 02:58 201 4 gusting 16 6.7
2018-Apr-20 02:43 210 5 gusting 18 6.7
2018-Apr-20 02:28 190 6 gusting 19 6.7
2018-Apr-20 02:13 215 6 gusting 22 6.7
2018-Apr-20 01:59 196 5 gusting 19 6.7
2018-Apr-20 01:43 172 8 gusting 23 6.7
2018-Apr-20 01:28 200 6 gusting 20 6.7
2018-Apr-20 01:13 198 6 gusting 26 6.7
2018-Apr-20 00:58 210 10 gusting 19 6.7
2018-Apr-20 00:43 213 6 gusting 13 6.7
2018-Apr-20 00:28 202 6 gusting 24 6.7
2018-Apr-20 00:13 192 10 gusting 26 6.7
2018-Apr-19 23:58 208 7 gusting 23 6.7
2018-Apr-19 23:43 167 14 gusting 33 6.7
2018-Apr-19 23:28 190 5 gusting 25 6.7
2018-Apr-19 23:13 175 7 gusting 23 6.7
2018-Apr-19 22:58 214 8 gusting 27 6.7
2018-Apr-19 22:43 246 13 gusting 30 6.7
2018-Apr-19 22:28 211 15 gusting 35 6.7
2018-Apr-19 22:13 189 16 gusting 31 6.7
2018-Apr-19 21:58 198 16 gusting 30 6.7
2018-Apr-19 21:43 192 15 gusting 34 6.7
2018-Apr-19 21:28 196 14 gusting 34 7.2
2018-Apr-19 21:13 227 10 gusting 35 7.2
2018-Apr-19 20:58 194 19 gusting 33 7.2
2018-Apr-19 20:43 265 13 gusting 38 7.2
2018-Apr-19 20:28 246 20 gusting 39 7.2
2018-Apr-19 20:13 202 19 gusting 39 7.2
2018-Apr-19 19:58 200 22 gusting 39 7.2
2018-Apr-19 19:43 253 24 gusting 44 7.2
2018-Apr-19 19:28 234 31 gusting 48 7.8
2018-Apr-19 19:13 269 24 gusting 53 7.8
2018-Apr-19 18:58 211 22 gusting 45 7.8
2018-Apr-19 18:43 219 22 gusting 53 8.3
2018-Apr-19 18:28 213 26 gusting 44 7.8
2018-Apr-19 18:13 197 13 gusting 46 7.8
2018-Apr-19 17:58 221 21 gusting 59 7.8
2018-Apr-19 17:43 221 22 gusting 49 8.3
2018-Apr-19 17:27 213 25 gusting 46 8.9
2018-Apr-19 17:12 220 20 gusting 56 9.4
2018-Apr-19 16:57 214 26 gusting 44 8.9
2018-Apr-19 16:42 257 25 gusting 48 9.4
2018-Apr-19 16:27 208 20 gusting 39 10.0
2018-Apr-19 16:12 218 17 gusting 40 10.0
2018-Apr-19 15:57 187 19 gusting 39 10.6
2018-Apr-19 15:42 186 19 gusting 39 10.6
2018-Apr-19 15:27 196 15 gusting 36 10.6
2018-Apr-19 15:12 236 19 gusting 36 10.6
2018-Apr-19 14:57 217 27 gusting 48 11.1
2018-Apr-19 14:42 250 30 gusting 60 11.1
2018-Apr-19 14:27 245 29 gusting 56 13.9
2018-Apr-19 14:12 214 25 gusting 50 16.1
2018-Apr-19 13:57 207 30 gusting 50 16.1
2018-Apr-19 13:42 192 27 gusting 69 16.1
2018-Apr-19 13:27 198 24 gusting 56 16.1
2018-Apr-19 13:12 223 14 gusting 45 16.1
2018-Apr-19 12:57 271 16 gusting 53 15.6
2018-Apr-19 12:42 200 16 gusting 46 15.6
2018-Apr-19 12:27 248 14 gusting 39 15.0
2018-Apr-19 12:12 165 13 gusting 41 14.4
2018-Apr-19 11:57 238 12 gusting 33 14.4
2018-Apr-19 11:42 209 19 gusting 42 13.9
2018-Apr-19 11:27 219 17 gusting 37 13.9
2018-Apr-19 11:12 200 13 gusting 38 13.3
2018-Apr-19 10:57 267 12 gusting 26 13.3
2018-Apr-19 10:42 203 13 gusting 39 12.8
2018-Apr-19 10:27 232 15 gusting 38 11.7
2018-Apr-19 10:12 208 19 gusting 46 12.2
2018-Apr-19 09:57 236 17 gusting 42 13.3
2018-Apr-19 09:41 190 11 gusting 31 12.2
2018-Apr-19 09:26 208 10 gusting 31 11.1
2018-Apr-19 09:11 198 16 gusting 34 12.8
2018-Apr-19 08:56 160 15 gusting 46 12.8
2018-Apr-19 08:41 198 13 gusting 38 12.8
2018-Apr-19 08:26 191 13 gusting 39 12.2
2018-Apr-19 08:11 161 22 gusting 45 12.2
2018-Apr-19 07:56 167 22 gusting 55 12.2
2018-Apr-19 07:41 173 18 gusting 40 12.2
2018-Apr-19 07:26 138 19 gusting 45 12.2
2018-Apr-19 07:11 140 20 gusting 50 11.7
2018-Apr-19 06:56 166 17 gusting 33 11.1
2018-Apr-19 06:41 205 15 gusting 30 10.6
2018-Apr-19 06:26 184 2 gusting 17 9.4
2018-Apr-19 06:11 223 3 gusting 13 10.0
2018-Apr-19 05:56 231 6 gusting 22 11.1
2018-Apr-19 05:41 187 16 gusting 39 11.1
2018-Apr-19 05:26 178 17 gusting 34 11.1
2018-Apr-19 05:11 146 14 gusting 31 11.1
2018-Apr-19 04:56 172 11 gusting 26 10.6
2018-Apr-19 04:41 164 13 gusting 32 10.6
2018-Apr-19 04:26 177 14 gusting 32 10.0
2018-Apr-19 04:11 169 13 gusting 28 9.4